[[{"header":{"parameterUnit":"m.s-1","parameterCategory":1,"la1":30.2991,"la2":30.254,"lo1":-89.0895,"lo2":-89.0444,"dy":0.0017,"dx":0.0017,"nx":28,"ny":28,"refTime":"2025-03-14T09:00:00:Z","depth":0,"parameterNumber":2,"parameterNumberName":"U-component_of_WINDS"},"data":[0,0,0,0,0,0,0,0,0,0,0,0,0,0,0,0,0,0,0,0,0,0,0,0,0,0,0,0,0,0,0,0,0,0,0,0,0,0,0,0,0,0,0,0,0,0,0,0,0,0,0,0,0,0,0,0,0,0,-3.2295,-3.2296,0,-3.2374,-3.2375,-3.2376,-3.2407,-3.2406,-3.2406,-3.2406,-3.2485,-3.2488,-3.249,0,0,0,0,0,0,0,0,0,0,0,0,0,-3.2168,-3.217,-3.2295,-3.2296,-3.2297,-3.2374,-3.2375,-3.2376,-3.2407,-3.2406,-3.2406,-3.2406,-3.2485,-3.2487,-3.249,0,0,0,0,0,0,0,0,0,0,0,0,0,-3.2233,-3.2171,-3.2295,-3.2321,-3.2324,-3.2374,-3.2375,-3.2376,-3.2407,-3.2406,-3.2406,-3.2406,-3.2484,-3.2487,-3.2491,-3.2519,0,0,-3.2501,-3.2503,0,0,0,0,0,0,0,0,-3.2229,-3.2237,-3.2316,-3.232,-3.2323,-3.238,-3.236,-3.2424,-3.2407,-3.2375,-3.2406,-3.2406,-3.2451,-3.2457,-3.2472,-3.2522,-3.2526,-3.2501,-3.2504,-3.2505,-3.2506,0,0,0,0,0,0,0,-3.2225,-3.2234,-3.2326,-3.2317,-3.2322,-3.2329,-3.2338,-3.2372,-3.2414,-3.2378,-3.2381,-3.239,-3.2452,-3.2469,-3.2474,-3.2527,-3.2501,-3.2504,-3.2507,-3.2508,-3.2604,-3.2605,0,0,0,0,0,0,-3.2216,-3.223,-3.2324,-3.2328,-3.2274,-3.2331,-3.2341,-3.2362,-3.2414,-3.2421,-3.239,-3.2391,-3.2463,-3.247,-3.2477,-3.2514,-3.2505,-3.2508,-3.251,-3.2604,-3.2604,-3.2605,0,0,0,0,0,0,-3.2213,-3.2224,-3.232,-3.228,-3.2293,-3.2334,-3.2357,-3.2364,-3.2381,-3.2422,-3.243,-3.2399,-3.2463,-3.2472,-3.2508,-3.2517,-3.251,-3.2513,-3.2603,-3.2604,-3.2605,-3.2586,0,0,0,0,0,0,-3.2209,-3.2223,-3.2234,-3.228,-3.2295,-3.235,-3.2358,-3.2366,-3.2387,-3.2389,-3.2433,-3.244,-3.2464,-3.2503,-3.2512,-3.2521,-3.2516,-3.2603,-3.2603,-3.2604,-3.2586,-3.2586,-3.2586,0,0,0,0,0,-3.2205,-3.2225,-3.2234,-3.2246,-3.231,-3.2351,-3.2359,-3.2386,-3.2387,-3.2399,-3.2426,-3.2439,-3.2515,-3.2506,-3.2517,-3.2527,-3.2602,-3.2603,-3.2604,-3.2586,-3.2586,-3.2586,0,0,0,0,0,0,-3.2178,-3.2232,-3.2243,-3.2279,-3.231,-3.2356,-3.2371,-3.2385,-3.2417,-3.2417,-3.2449,-3.2459,-3.2492,-3.2513,-3.2503,-3.2557,-3.2559,-3.2562,-3.2542,-3.2543,-3.2542,-3.2536,-3.2519,0,0,0,0,0,-3.2177,-3.2206,-3.2251,-3.2279,-3.2294,-3.233,-3.2349,-3.2367,-3.24,-3.2413,-3.2443,-3.2475,-3.2506,-3.2525,-3.2556,-3.259,-3.26,-3.2602,-3.2602,-3.2602,-3.2604,-3.2624,-3.2626,-3.2608,-3.2608,-3.2608,0,0,-3.2174,-3.2207,-3.2223,-3.2274,-3.2301,-3.233,-3.2341,-3.2371,-3.2393,-3.2418,-3.2454,-3.2477,-3.2514,-3.2549,-3.2566,-3.2568,-3.2611,-3.2603,-3.2603,-3.2605,-3.2625,-3.2627,-3.2628,-3.2609,-3.2609,-3.2609,0,0,-3.2183,-3.2211,-3.2237,-3.2264,-3.2304,-3.2328,-3.2334,-3.2378,-3.2395,-3.2431,-3.2451,-3.2477,-3.253,-3.2556,-3.2576,-3.2596,-3.2609,-3.2605,-3.2604,-3.2623,-3.2625,-3.2626,-3.2633,-3.2635,-3.2607,-3.2607,-3.2607,0,-3.2174,-3.2219,-3.2249,-3.2278,-3.23,-3.2325,-3.2352,-3.2376,-3.2424,-3.2438,-3.244,-3.2507,-3.2534,-3.2575,-3.258,-3.2596,-3.2604,-3.26,-3.2622,-3.2624,-3.2625,-3.2633,-3.2635,-3.2606,-3.2606,-3.2606,-3.2606,0,-3.2206,-3.2237,-3.2254,-3.23,-3.2324,-3.2352,-3.2385,-3.2405,-3.2422,-3.2445,-3.2482,-3.2516,-3.2554,-3.2565,-3.2581,-3.2609,-3.2609,-3.2616,-3.2618,-3.2626,-3.2633,-3.2636,-3.2605,-3.2605,-3.2606,-3.2606,0,0,-3.2201,-3.2264,-3.2269,-3.2291,-3.2337,-3.2362,-3.239,-3.2429,-3.2445,-3.2478,-3.2503,-3.2547,-3.2554,-3.2577,-3.2596,-3.2612,-3.2626,-3.2618,-3.2619,-3.2618,-3.2659,-3.2653,-3.2656,-3.2635,-3.2636,-3.2636,-3.2656,0,-3.2216,-3.227,-3.2297,-3.2339,-3.2368,-3.2392,-3.2418,-3.2449,-3.2472,-3.2499,-3.2524,-3.2555,-3.2562,-3.2576,-3.2594,-3.2621,-3.2635,-3.262,-3.2658,-3.2659,-3.2648,-3.266,-3.2654,-3.267,-3.2659,-3.2659,-3.266,0,-3.2242,-3.2274,-3.2319,-3.2362,-3.2376,-3.2398,-3.2435,-3.2461,-3.2497,-3.2513,-3.2538,-3.2557,-3.2588,-3.2589,-3.2632,-3.2621,-3.2639,-3.2654,-3.2656,-3.266,-3.266,-3.2664,-3.2676,-3.2679,-3.2664,-3.2664,-3.2664,0,-3.2233,-3.2288,-3.2322,-3.234,-3.2391,-3.2407,-3.2429,-3.2464,-3.2485,-3.2518,-3.2532,-3.2567,-3.2586,-3.2613,-3.2641,-3.2639,-3.2682,-3.2684,-3.2695,-3.2694,-3.2703,-3.2702,-3.2717,-3.2714,-3.2714,-3.2714,-3.2714,0,-3.2247,-3.2274,-3.2319,-3.234,-3.237,-3.2402,-3.243,-3.2454,-3.2486,-3.2511,-3.2534,-3.2558,-3.2594,-3.2621,-3.2643,-3.2676,-3.2684,-3.2697,-3.2703,-3.2695,-3.2694,-3.2707,-3.2706,-3.2715,-3.2715,-3.2715,-3.2714,0,-3.2243,-3.2275,-3.2313,-3.2359,-3.2371,-3.2391,-3.2431,-3.2451,-3.2476,-3.2508,-3.2517,-3.2555,-3.2589,-3.262,-3.2665,-3.268,-3.2713,-3.272,-3.2701,-3.2704,-3.2713,-3.2711,-3.2738,-3.2743,-3.2736,-3.2736,-3.2736,0,-3.225,-3.2271,-3.2319,-3.2338,-3.236,-3.2391,-3.2413,-3.2444,-3.2466,-3.2509,-3.2525,-3.256,-3.2591,-3.2644,-3.2675,-3.271,-3.2718,-3.2725,-3.2723,-3.2715,-3.2718,-3.2716,-3.2718,-3.2724,-3.2724,-3.2724,-3.2724,0,-3.2259,-3.2274,-3.2305,-3.2342,-3.2367,-3.2398,-3.2429,-3.2443,-3.248,-3.2504,-3.2539,-3.2563,-3.2609,-3.2644,-3.2682,-3.2705,-3.272,-3.2724,-3.2729,-3.2721,-3.2709,-3.2715,-3.27,-3.2723,-3.2723,-3.2723,-3.2723,-3.2723,-3.2261,-3.2281,-3.2318,-3.2352,-3.2379,-3.2407,-3.2429,-3.2456,-3.2487,-3.2527,-3.2544,-3.258,-3.2615,-3.2668,-3.2691,-3.2719,-3.2722,-3.2728,-3.273,-3.2731,-3.2729,-3.2705,-3.2726,-3.2726,-3.2726,-3.2726,-3.2726,0,-3.2271,-3.2296,-3.2327,-3.237,-3.2397,-3.241,-3.2445,-3.2466,-3.2498,-3.253,-3.2559,-3.26,-3.2635,-3.2669,-3.2705,-3.2721,-3.2729,-3.273,-3.2729,-3.2733,-3.2725,-3.2717,-3.2722,-3.2722,-3.2722,-3.2722,-3.2722,-3.2722,-3.228,-3.2314,-3.2333,-3.2381,-3.2406,-3.2442,-3.2461,-3.2487,-3.2513,-3.2557,-3.2586,-3.2608,-3.2641,-3.268,-3.2712,-3.2722,-3.2734,-3.2732,-3.2743,-3.2734,-3.2734,-3.2734,-3.2727,-3.2734,-3.2734,-3.275,-3.275,-3.275]},{"header":{"parameterUnit":"m.s-1","parameterCategory":1,"la1":30.2991,"la2":30.254,"lo1":-89.0895,"lo2":-89.0444,"dy":0.0017,"dx":0.0017,"nx":28,"ny":28,"refTime":"2025-03-14T09:00:00:Z","depth":0,"parameterNumber":3,"parameterNumberName":"V-component_of_WINDS"},"data":[0,0,0,0,0,0,0,0,0,0,0,0,0,0,0,0,0,0,0,0,0,0,0,0,0,0,0,0,0,0,0,0,0,0,0,0,0,0,0,0,0,0,0,0,0,0,0,0,0,0,0,0,0,0,0,0,0,0,8.6456,8.6457,0,8.6552,8.6553,8.6554,8.651,8.6508,8.6506,8.6503,8.6593,8.6598,8.6602,0,0,0,0,0,0,0,0,0,0,0,0,0,8.6229,8.6234,8.6456,8.6457,8.6458,8.6551,8.6553,8.6554,8.6511,8.6508,8.6505,8.6502,8.6592,8.6597,8.6603,0,0,0,0,0,0,0,0,0,0,0,0,0,8.6327,8.6235,8.6456,8.6448,8.6448,8.6551,8.6553,8.6554,8.6511,8.6508,8.6504,8.6501,8.659,8.6597,8.6604,8.6717,0,0,8.6625,8.6628,0,0,0,0,0,0,0,0,8.6321,8.6335,8.6448,8.6449,8.6449,8.6516,8.6506,8.6609,8.6512,8.6487,8.6503,8.6499,8.657,8.6578,8.6604,8.6721,8.6725,8.6625,8.6629,8.6632,8.6634,0,0,0,0,0,0,0,8.6314,8.633,8.6493,8.645,8.645,8.6438,8.6448,8.6525,8.6547,8.6489,8.6486,8.6499,8.6569,8.6597,8.6605,8.6726,8.6625,8.6631,8.6635,8.6638,8.6945,8.6948,0,0,0,0,0,0,8.6309,8.6325,8.649,8.6496,8.6375,8.6445,8.6456,8.6498,8.6546,8.655,8.6502,8.6496,8.6587,8.6597,8.6608,8.6747,8.6632,8.6639,8.6643,8.6941,8.6945,8.695,0,0,0,0,0,0,8.6304,8.6324,8.6486,8.641,8.643,8.6453,8.65,8.6501,8.6529,8.6556,8.6558,8.6526,8.6585,8.6599,8.6692,8.6749,8.6642,8.6648,8.6936,8.6942,8.6948,8.7024,0,0,0,0,0,0,8.6298,8.6323,8.6367,8.6412,8.6434,8.657,8.6503,8.6506,8.6542,8.6536,8.658,8.6583,8.6583,8.6682,8.6698,8.6757,8.6654,8.6931,8.6939,8.6946,8.7016,8.7031,8.7045,0,0,0,0,0,8.629,8.6382,8.637,8.639,8.6491,8.6573,8.6586,8.6586,8.6547,8.6591,8.6609,8.6582,8.674,8.6691,8.671,8.6771,8.6927,8.6936,8.6945,8.701,8.7028,8.7044,0,0,0,0,0,0,8.634,8.6387,8.6374,8.6484,8.6526,8.6566,8.6622,8.6606,8.6657,8.6649,8.6644,8.6655,8.6752,8.677,8.6715,8.6885,8.6827,8.6841,8.687,8.6888,8.6902,8.6896,8.6659,0,0,0,0,0,8.6364,8.643,8.6467,8.656,8.6582,8.6599,8.6634,8.6632,8.6673,8.669,8.6713,8.6753,8.6812,8.685,8.6906,8.7018,8.7028,8.707,8.7084,8.7095,8.7107,8.7171,8.7191,8.6979,8.6979,8.6979,0,0,8.6414,8.6448,8.6489,8.6571,8.6603,8.667,8.6613,8.6685,8.6735,8.6699,8.6791,8.681,8.6853,8.6958,8.7004,8.6976,8.7168,8.7107,8.7116,8.7122,8.7182,8.7202,8.722,8.6986,8.6984,8.6983,0,0,8.654,8.6572,8.6655,8.6689,8.674,8.6751,8.6771,8.6815,8.6828,8.6919,8.6895,8.6952,8.7053,8.7087,8.7117,8.7259,8.7237,8.7276,8.7352,8.7414,8.743,8.7445,8.7498,8.7517,8.7288,8.7288,8.7288,0,8.6595,8.6697,8.6698,8.6775,8.6812,8.6787,8.6871,8.6903,8.6967,8.6993,8.6961,8.709,8.7117,8.723,8.7265,8.7289,8.7312,8.7272,8.7428,8.7443,8.7457,8.7507,8.7527,8.7293,8.7292,8.7292,8.7291,0,8.6764,8.6835,8.6895,8.6964,8.7007,8.7086,8.7099,8.7142,8.7136,8.715,8.7245,8.7277,8.734,8.7366,8.7359,8.7479,8.7461,8.7429,8.7371,8.7482,8.7529,8.7548,8.7299,8.7298,8.7296,8.7295,0,0,8.6922,8.6994,8.7016,8.7048,8.7103,8.7157,8.7235,8.7301,8.734,8.7385,8.7451,8.7538,8.751,8.7544,8.7541,8.7595,8.7709,8.7556,8.7557,8.7586,8.7846,8.7872,8.7894,8.7694,8.7698,8.7701,8.7843,0,8.7055,8.7196,8.7201,8.7329,8.7396,8.7374,8.7442,8.7483,8.7499,8.7556,8.7571,8.7636,8.7592,8.7613,8.7666,8.7684,8.7761,8.7673,8.7755,8.7758,8.7748,8.7919,8.7945,8.8079,8.7862,8.7865,8.7867,0,8.7227,8.7284,8.742,8.747,8.7498,8.7559,8.7621,8.7677,8.7722,8.773,8.777,8.7759,8.7838,8.7777,8.7887,8.7827,8.786,8.7875,8.788,8.7889,8.7821,8.7934,8.8121,8.8142,8.7896,8.7893,8.7891,0,8.7334,8.7443,8.754,8.7567,8.7626,8.767,8.7696,8.7739,8.7779,8.7832,8.7858,8.7918,8.7951,8.7997,8.8002,8.7957,8.8113,8.8052,8.8122,8.8122,8.8157,8.8155,8.8354,8.8175,8.8175,8.8174,8.8174,0,8.7482,8.7567,8.7589,8.7648,8.7743,8.7747,8.784,8.7862,8.79,8.7963,8.7945,8.8004,8.8007,8.8067,8.8071,8.8162,8.8176,8.8184,8.8185,8.8188,8.8187,8.8211,8.8202,8.818,8.8178,8.8177,8.8176,0,8.7617,8.7635,8.7739,8.7788,8.7803,8.787,8.7911,8.7968,8.7982,8.8062,8.8081,8.8103,8.8173,8.8183,8.8263,8.8266,8.8377,8.8366,8.8363,8.8362,8.8433,8.8427,8.8655,8.8686,8.8485,8.8487,8.8489,0,8.7711,8.7777,8.7835,8.7877,8.7907,8.7975,8.8017,8.8024,8.8068,8.8127,8.8176,8.8245,8.8301,8.8413,8.8436,8.8497,8.849,8.8565,8.8498,8.85,8.8494,8.8491,8.8499,8.8579,8.8581,8.8583,8.8584,0,8.7878,8.7885,8.7948,8.8016,8.8068,8.812,8.8169,8.8205,8.8217,8.8267,8.8341,8.8385,8.847,8.8538,8.8601,8.8625,8.8607,8.8605,8.8625,8.8629,8.8626,8.8632,8.8401,8.86,8.8598,8.8597,8.8596,8.8596,8.7998,8.8057,8.8108,8.8179,8.8218,8.8266,8.8323,8.8347,8.8409,8.8481,8.848,8.8561,8.8606,8.8689,8.8718,8.878,8.8755,8.8783,8.8791,8.8798,8.8807,8.8615,8.8791,8.879,8.879,8.879,8.8789,0,8.8166,8.8199,8.8265,8.8338,8.8394,8.8376,8.843,8.8478,8.8551,8.8596,8.8653,8.8738,8.8806,8.8835,8.8901,8.8945,8.8939,8.8963,8.896,8.8967,8.8824,8.8802,8.8967,8.8967,8.8967,8.8967,8.8967,8.8967,8.8261,8.8361,8.8374,8.8493,8.8524,8.8607,8.864,8.8683,8.872,8.8818,8.8876,8.8895,8.8934,8.9003,8.9064,8.9071,8.9097,8.9125,8.9128,8.8994,8.8976,8.8959,8.8938,8.913,8.913,8.9266,8.9267,8.9268]}]]